• In Austria
  • List of Countries
  • For 7 days
  • Water Temperature
  • Satellite Maps
  • Weather Map
  • News
  • Weather Widgets
  • user-avatar
    Login

    Hourly Weather Annaba

    Today, 25 September, Tuesday

    Time Temperature Precipitation Wind Pressure Humidity
    00:00 +25°C° 0 mm 2 mps 764 mmHg 87%
    01:00 +25°C° 0 mm 2 mps 764 mmHg 89%
    02:00 +25°C° 0 mm 2 mps 764 mmHg 89%
    03:00 +25°C° 0 mm 2 mps 764 mmHg 89%
    04:00 +25°C° 0 mm 2 mps 764 mmHg 89%
    05:00 +25°C° 0 mm 2 mps 764 mmHg 88%
    06:00 +25°C° 0 mm 2 mps 764 mmHg 87%
    07:00 +25°C° 0 mm 2 mps 764 mmHg 86%
    08:00 +26°C° 0 mm 2 mps 764 mmHg 79%
    09:00 +27°C° 0 mm 2 mps 764 mmHg 71%
    10:00 +28°C° 0 mm 2 mps 764 mmHg 64%
    11:00 +29°C° 0 mm 3 mps 764 mmHg 59%
    12:00 +30°C° 0 mm 4 mps 764 mmHg 55%
    13:00 +32°C° 0 mm 4 mps 764 mmHg 50%
    14:00 +32°C° 0 mm 4 mps 763 mmHg 52%
    15:00 +30°C° 0 mm 4 mps 763 mmHg 54%
    16:00 +30°C° 0 mm 5 mps 763 mmHg 56%
    17:00 +29°C° 0 mm 4 mps 763 mmHg 61%
    18:00 +28°C° 0 mm 3 mps 763 mmHg 66%
    19:00 +26°C° 0 mm 2 mps 764 mmHg 71%
    20:00 +26°C° 0 mm 2 mps 764 mmHg 72%
    21:00 +25°C° 0 mm 1 mps 764 mmHg 74%
    22:00 +25°C° 0 mm 1 mps 765 mmHg 76%
    23:00 +25°C° 0 mm 1 mps 765 mmHg 78%

    Tomorrow, 26 September, Wednesday

    Time Temperature Precipitation Wind Pressure Humidity
    00:00 +24°C° 0 mm 1 mps 765 mmHg 79%
    01:00 +24°C° 0 mm 1 mps 765 mmHg 80%
    02:00 +24°C° 0.1 mm 1 mps 765 mmHg 81%
    03:00 +23°C° 0.1 mm 1 mps 765 mmHg 82%
    04:00 +23°C° 0.1 mm 1 mps 765 mmHg 84%
    05:00 +23°C° 0.2 mm 1 mps 765 mmHg 83%
    06:00 +23°C° 0.2 mm 2 mps 765 mmHg 83%
    07:00 +23°C° 0.2 mm 2 mps 765 mmHg 83%
    08:00 +25°C° 0.3 mm 3 mps 766 mmHg 76%
    09:00 +26°C° 0.3 mm 3 mps 766 mmHg 69%
    10:00 +27°C° 0.3 mm 4 mps 766 mmHg 62%
    11:00 +28°C° 0.5 mm 5 mps 766 mmHg 61%
    12:00 +29°C° 0.5 mm 7 mps 766 mmHg 59%
    13:00 +29°C° 0.5 mm 8 mps 766 mmHg 58%
    14:00 +29°C° 0.6 mm 8 mps 766 mmHg 60%
    15:00 +28°C° 0.6 mm 9 mps 766 mmHg 63%
    16:00 +28°C° 0.6 mm 9 mps 766 mmHg 65%
    17:00 +27°C° 0 mm 9 mps 766 mmHg 67%
    18:00 +26°C° 0 mm 8 mps 767 mmHg 69%
    19:00 +26°C° 0 mm 8 mps 767 mmHg 71%
    20:00 +24°C° 0 mm 7 mps 768 mmHg 70%
    21:00 +24°C° 0 mm 7 mps 768 mmHg 70%
    22:00 +24°C° 0 mm 6 mps 768 mmHg 69%
    23:00 +23°C° 0 mm 6 mps 768 mmHg 70%

    Day after tomorrow, 27 September, Thursday

    Time Temperature Precipitation Wind Pressure Humidity
    00:00 +23°C° 0 mm 5 mps 768 mmHg 70%
    01:00 +23°C° 0 mm 5 mps 768 mmHg 71%
    02:00 +22°C° 0 mm 5 mps 768 mmHg 72%
    03:00 +22°C° 0 mm 4 mps 768 mmHg 74%
    04:00 +21°C° 0 mm 4 mps 768 mmHg 75%
    05:00 +21°C° 0 mm 4 mps 768 mmHg 75%
    06:00 +21°C° 0 mm 4 mps 768 mmHg 76%
    07:00 +21°C° 0 mm 3 mps 768 mmHg 76%
    08:00 +22°C° 0 mm 3 mps 768 mmHg 68%
    09:00 +25°C° 0 mm 3 mps 768 mmHg 61%
    10:00 +26°C° 0 mm 3 mps 768 mmHg 53%
    11:00 +27°C° 0 mm 3 mps 768 mmHg 48%
    12:00 +28°C° 0 mm 4 mps 768 mmHg 42%
    13:00 +29°C° 0 mm 4 mps 767 mmHg 36%
    14:00 +29°C° 0 mm 4 mps 767 mmHg 38%
    15:00 +29°C° 0 mm 5 mps 766 mmHg 40%
    16:00 +29°C° 0 mm 5 mps 766 mmHg 42%
    17:00 +27°C° 0 mm 5 mps 766 mmHg 50%
    18:00 +26°C° 0 mm 4 mps 766 mmHg 59%
    19:00 +23°C° 0 mm 4 mps 766 mmHg 67%
    20:00 +23°C° 0 mm 4 mps 766 mmHg 71%
    21:00 +22°C° 0 mm 3 mps 766 mmHg 75%
    22:00 +23°C° 0 mm 2 mps 766 mmHg 79%
    23:00 +23°C° 0 mm 2 mps 766 mmHg 80%

    28 September, Friday

    Time Temperature Precipitation Wind Pressure Humidity
    00:00 +21°C° 0 mm 2 mps 765 mmHg 81%
    01:00 +21°C° 0 mm 2 mps 765 mmHg 82%
    02:00 +21°C° 0 mm 2 mps 765 mmHg 82%
    03:00 +21°C° 0 mm 1 mps 764 mmHg 83%
    04:00 +21°C° 0 mm 1 mps 764 mmHg 84%
    05:00 +21°C° 0 mm 1 mps 764 mmHg 83%
    06:00 +21°C° 0 mm 1 mps 764 mmHg 83%
    07:00 +21°C° 0 mm 1 mps 764 mmHg 83%
    08:00 +23°C° 0 mm 1 mps 764 mmHg 72%
    09:00 +25°C° 0 mm 1 mps 764 mmHg 60%
    10:00 +25°C° 0 mm 0 mps 764 mmHg 49%
    11:00 +28°C° 0 mm 1 mps 763 mmHg 44%
    12:00 +29°C° 0 mm 2 mps 763 mmHg 38%
    13:00 +29°C° 0 mm 2 mps 762 mmHg 33%
    14:00 +29°C° 0 mm 3 mps 762 mmHg 35%
    15:00 +29°C° 0 mm 3 mps 762 mmHg 37%
    16:00 +29°C° 0 mm 4 mps 761 mmHg 40%
    17:00 +27°C° 0 mm 3 mps 761 mmHg 46%
    18:00 +26°C° 0 mm 2 mps 761 mmHg 53%
    19:00 +24°C° 0 mm 2 mps 762 mmHg 60%
    20:00 +24°C° 0 mm 1 mps 762 mmHg 63%
    21:00 +23°C° 0 mm 1 mps 762 mmHg 66%
    22:00 +21°C° 0 mm 0 mps 762 mmHg 69%
    23:00 +22°C° 0 mm 1 mps 762 mmHg 70%

    29 September, Saturday

    Time Temperature Precipitation Wind Pressure Humidity
    00:00 +22°C° 0 mm 1 mps 762 mmHg 70%
    01:00 +22°C° 0 mm 1 mps 761 mmHg 71%
    02:00 +21°C° 0 mm 1 mps 761 mmHg 71%
    03:00 +21°C° 0 mm 1 mps 761 mmHg 71%
    04:00 +21°C° 0 mm 1 mps 761 mmHg 71%
    05:00 +21°C° 0 mm 1 mps 761 mmHg 70%
    06:00 +21°C° 0 mm 1 mps 761 mmHg 69%
    07:00 +20°C° 0 mm 2 mps 761 mmHg 68%
    08:00 +23°C° 0 mm 1 mps 761 mmHg 60%
    09:00 +25°C° 0 mm 1 mps 761 mmHg 51%
    10:00 +25°C° 0 mm 0 mps 761 mmHg 43%
    11:00 +28°C° 0 mm 1 mps 761 mmHg 39%
    12:00 +30°C° 0 mm 1 mps 761 mmHg 35%
    13:00 +31°C° 0 mm 2 mps 761 mmHg 31%
    14:00 +30°C° 0 mm 2 mps 760 mmHg 33%
    15:00 +30°C° 0 mm 3 mps 760 mmHg 35%
    16:00 +30°C° 0 mm 3 mps 760 mmHg 37%
    17:00 +28°C° 0 mm 3 mps 760 mmHg 44%
    18:00 +27°C° 0 mm 2 mps 760 mmHg 52%
    19:00 +25°C° 0 mm 2 mps 760 mmHg 59%
    20:00 +24°C° 0 mm 1 mps 761 mmHg 61%
    21:00 +24°C° 0 mm 1 mps 761 mmHg 64%
    22:00 +23°C° 0 mm 1 mps 761 mmHg 67%
    23:00 +21°C° 0 mm 0 mps 761 mmHg 67%

    30 September, Sunday

    Time Temperature Precipitation Wind Pressure Humidity
    00:00 +21°C° 0 mm 0 mps 761 mmHg 68%
    01:00 +21°C° 0 mm 0 mps 761 mmHg 68%
    02:00 +21°C° 0 mm 0 mps 761 mmHg 69%
    03:00 +20°C° 0 mm 0 mps 761 mmHg 69%
    04:00 +20°C° 0 mm 0 mps 760 mmHg 70%
    05:00 +20°C° 0 mm 0 mps 761 mmHg 68%
    06:00 +20°C° 0 mm 0 mps 761 mmHg 67%
    07:00 +20°C° 0 mm 0 mps 761 mmHg 66%
    08:00 +22°C° 0 mm 0 mps 761 mmHg 58%
    09:00 +26°C° 0 mm 1 mps 761 mmHg 51%
    10:00 +29°C° 0 mm 1 mps 761 mmHg 43%
    11:00 +29°C° 0 mm 1 mps 761 mmHg 42%
    12:00 +30°C° 0 mm 2 mps 761 mmHg 40%
    13:00 +31°C° 0 mm 3 mps 761 mmHg 38%
    14:00 +31°C° 0 mm 3 mps 761 mmHg 38%
    15:00 +30°C° 0 mm 3 mps 760 mmHg 38%
    16:00 +30°C° 0 mm 3 mps 760 mmHg 38%
    17:00 +28°C° 0 mm 2 mps 761 mmHg 43%
    18:00 +27°C° 0 mm 2 mps 761 mmHg 48%
    19:00 +25°C° 0 mm 1 mps 761 mmHg 53%
    20:00 +24°C° 0 mm 1 mps 761 mmHg 56%
    21:00 +24°C° 0 mm 1 mps 762 mmHg 60%
    22:00 +23°C° 0 mm 1 mps 762 mmHg 63%
    23:00 +23°C° 0 mm 1 mps 762 mmHg 65%
    Show more